Regional Weather Roundup
Issued by NWS Cleveland, OH

Home | Current Version | Previous Version | Graphics & Text | Print | Product List | Glossary On
Versions: 1 2 3 4 5 6 7 8 9 10 11 12 13 14 15 16 17 18 19 20 21 22 23 24 25 26 27 28 29 30 31 32 33 34 35 36 37 38 39 40 41 42 43 44 45 46 47 48 49 50
703
ASUS41 KCLE 221202
RWRCLE
OHIO REGIONAL WEATHER ROUNDUP
NATIONAL WEATHER SERVICE CLEVELAND, OH
800 AM EDT TUE AUG 22 2017

NOTE: "FAIR" INDICATES FEW OR NO CLOUDS BELOW 12,000 FEET WITH NO
SIGNIFICANT WEATHER AND/OR OBSTRUCTIONS TO VISIBILITY.

OHZ001>008-015>018-024>027-034-035-043-044-221300-
   NORTHWEST OHIO

CITY           SKY/WX    TMP DP  RH WIND       PRES   REMARKS
DEFIANCE       CLOUDY    71  68  90 SW9       29.89S
FINDLAY        CLOUDY    75  67  76 SW9       29.89F
TOLEDO EXPRESS LGT RAIN  71  71 100 SW7       29.87F
TOLEDO EXEC    LGT RAIN  73  71  93 SW10      29.88F FOG
LIMA           CLOUDY    73  69  87 SW8       29.92F
$$

OHZ009>014-019>023-028>033-038-089-221300-
   NORTHEAST OHIO

CITY           SKY/WX    TMP DP  RH WIND       PRES   REMARKS
CLE-HOPKINS    CLOUDY    78  68  71 S13       29.92F
CLE-LAKEFRONT  CLOUDY    80  67  64 S17G24    29.88F
CUY CO. ARPT   PTSUNNY   77  68  73 S14       29.91F
LORAIN-ELYRIA  CLOUDY    75  64  68 S8        29.91F
ASHTABULA      PTSUNNY   74  70  87 S12       29.93F
AKRON-CANTON   PTSUNNY   77  67  71 SW13      29.96F
WOOSTER        CLOUDY    73  69  87 SW7       29.96F
MANSFIELD      PTSUNNY   75  68  78 S13       29.94F
YOUNGSTOWN     CLOUDY    75  68  78 S9        29.96F
$$

OHZ042-051>053-060>062-070>072-077>081-221300-
  SOUTHWEST OHIO

CITY           SKY/WX    TMP DP  RH WIND       PRES   REMARKS
CINC-COVINGTON PTSUNNY   74  70  87 S9        29.99S
CINC-LUNKEN    MOSUNNY   74  71  91 SW6       29.98F
HAMILTON       MOSUNNY   78  70  76 SW7       29.98S
DAYTON         PTSUNNY   75  68  78 SW13      29.97S
WRIGHT-PAT AFB MOSUNNY   76  70  80 S9        29.95F
DAYTON GENERAL MOSUNNY   76  68  76 S12       29.97F
WILMINGTON     SUNNY     72  69  90 S10       29.98F
$$

OHZ036-037-039>041-045>050-054>059-063>069-073>076-082>088-221300-
  CENTRAL AND SOUTHEAST OHIO

CITY           SKY/WX    TMP DP  RH WIND       PRES   REMARKS
COLUMBUS       PTSUNNY   76  69  79 S13G18    29.97F
OSU AIRPORT    PTSUNNY   74  70  87 S13G21    29.95F
BOLTON FIELD   SUNNY     72  70  94 S6        29.98S
RICKENBACK AFB MOSUNNY   73  69  88 S8        29.97F
NEWARK         MOSUNNY   74  68  81 S6        29.97F
MARION         CLOUDY    74  68  81 S13       29.93F
LANCASTER      MOSUNNY   75  69  81 S9        29.98F
ZANESVILLE     MOSUNNY   74  68  81 S6        29.99F
NEW PHILLY     NOT AVBL
$$




USA.gov is the U.S. government's official web portal to all federal, state and local government web resources and services.